When you browse on this site, cookies collect data to enhance your experience and personalize the content and advertising you see.
Visit our Privacy Policy to learn more. By continuing to use the site, you agree to this use of cookies and data.
  • En España
  • Lista de países
  • Para 7 días
  • Temperatura del agua
  • El tiempo en el mapa
  • Informadores
  • user-avatar
    Iniciar sesión

    Tiempo cada hora Debricy

    Hoy, 4 Junio, Jueves

    Tiempo Temperatura Precipitaciones Viento Presión Humedad
    00:00 +9°C° 0 mm 1 mps 736 mmHg 97%
    01:00 +8°C° 0 mm 1 mps 736 mmHg 97%
    02:00 +8°C° 0 mm 1 mps 736 mmHg 97%
    03:00 +9°C° 0 mm 1 mps 735 mmHg 97%
    04:00 +8°C° 0 mm 0 mps 735 mmHg 97%
    05:00 +9°C° 0 mm 0 mps 734 mmHg 97%
    06:00 +10°C° 0 mm 0 mps 734 mmHg 93%
    07:00 +12°C° 0 mm 0 mps 734 mmHg 89%
    08:00 +13°C° 0 mm 0 mps 734 mmHg 84%
    09:00 +15°C° 0.3 mm 1 mps 734 mmHg 78%
    10:00 +18°C° 0.3 mm 1 mps 734 mmHg 72%
    11:00 +18°C° 0.3 mm 2 mps 734 mmHg 66%
    12:00 +17°C° 0.8 mm 3 mps 734 mmHg 71%
    13:00 +17°C° 0.8 mm 3 mps 734 mmHg 76%
    14:00 +15°C° 0.8 mm 4 mps 734 mmHg 80%
    15:00 +15°C° 0.3 mm 4 mps 734 mmHg 81%
    16:00 +15°C° 0.3 mm 4 mps 733 mmHg 81%
    17:00 +14°C° 0.3 mm 3 mps 733 mmHg 81%
    18:00 +13°C° 0.1 mm 3 mps 733 mmHg 85%
    19:00 +12°C° 0.1 mm 3 mps 734 mmHg 88%
    20:00 +11°C° 0.1 mm 3 mps 734 mmHg 92%
    21:00 +10°C° 0 mm 3 mps 734 mmHg 93%
    22:00 +9°C° 0 mm 3 mps 734 mmHg 93%
    23:00 +8°C° 0 mm 3 mps 734 mmHg 94%

    Mañana, 5 Junio, Viernes

    Tiempo Temperatura Precipitaciones Viento Presión Humedad
    00:00 +8°C° 0 mm 3 mps 734 mmHg 94%
    01:00 +8°C° 0 mm 3 mps 734 mmHg 95%
    02:00 +7°C° 0 mm 3 mps 734 mmHg 95%
    03:00 +8°C° 0 mm 3 mps 734 mmHg 95%
    04:00 +8°C° 0 mm 3 mps 734 mmHg 95%
    05:00 +8°C° 0 mm 3 mps 734 mmHg 95%
    06:00 +10°C° 0.1 mm 3 mps 734 mmHg 90%
    07:00 +12°C° 0.1 mm 3 mps 735 mmHg 85%
    08:00 +14°C° 0.1 mm 4 mps 735 mmHg 80%
    09:00 +14°C° 0.4 mm 4 mps 735 mmHg 80%
    10:00 +14°C° 0.4 mm 4 mps 735 mmHg 80%
    11:00 +15°C° 0.4 mm 4 mps 735 mmHg 80%
    12:00 +17°C° 0.1 mm 3 mps 735 mmHg 76%
    13:00 +18°C° 0.1 mm 3 mps 735 mmHg 72%
    14:00 +18°C° 0.1 mm 3 mps 735 mmHg 69%
    15:00 +18°C° 0 mm 3 mps 735 mmHg 68%
    16:00 +19°C° 0 mm 2 mps 735 mmHg 67%
    17:00 +19°C° 0 mm 2 mps 736 mmHg 67%
    18:00 +17°C° 0 mm 2 mps 736 mmHg 73%
    19:00 +16°C° 0 mm 2 mps 736 mmHg 80%
    20:00 +14°C° 0 mm 2 mps 736 mmHg 86%
    21:00 +13°C° 0 mm 2 mps 736 mmHg 89%
    22:00 +12°C° 0 mm 2 mps 737 mmHg 91%
    23:00 +11°C° 0 mm 3 mps 737 mmHg 94%

    Pasado mañana, 6 Junio, Sábado

    Tiempo Temperatura Precipitaciones Viento Presión Humedad
    00:00 +11°C° 0 mm 3 mps 737 mmHg 94%
    01:00 +11°C° 0 mm 3 mps 737 mmHg 94%
    02:00 +12°C° 0 mm 3 mps 737 mmHg 95%
    03:00 +12°C° 0 mm 4 mps 737 mmHg 95%
    04:00 +13°C° 0 mm 4 mps 737 mmHg 94%
    05:00 +14°C° 0 mm 4 mps 737 mmHg 94%
    06:00 +15°C° 0 mm 4 mps 737 mmHg 91%
    07:00 +18°C° 0 mm 4 mps 738 mmHg 87%
    08:00 +19°C° 0 mm 5 mps 738 mmHg 83%
    09:00 +20°C° 0.2 mm 5 mps 738 mmHg 80%
    10:00 +22°C° 0.2 mm 5 mps 738 mmHg 77%
    11:00 +23°C° 0.2 mm 5 mps 738 mmHg 74%
    12:00 +23°C° 0.6 mm 5 mps 738 mmHg 75%
    13:00 +23°C° 0.6 mm 4 mps 739 mmHg 76%
    14:00 +23°C° 0.6 mm 4 mps 739 mmHg 77%
    15:00 +22°C° 0.6 mm 3 mps 739 mmHg 80%
    16:00 +22°C° 0.6 mm 3 mps 739 mmHg 83%
    17:00 +21°C° 0.6 mm 3 mps 739 mmHg 86%
    18:00 +20°C° 0.4 mm 3 mps 739 mmHg 87%
    19:00 +19°C° 0.4 mm 2 mps 740 mmHg 89%
    20:00 +18°C° 0.4 mm 2 mps 740 mmHg 90%
    21:00 +18°C° 0 mm 2 mps 740 mmHg 91%
    22:00 +17°C° 0 mm 2 mps 740 mmHg 92%
    23:00 +18°C° 0 mm 1 mps 741 mmHg 93%

    7 Junio, Domingo

    Tiempo Temperatura Precipitaciones Viento Presión Humedad
    00:00 +18°C° 0.1 mm 1 mps 741 mmHg 94%
    01:00 +18°C° 0.1 mm 1 mps 741 mmHg 94%
    02:00 +18°C° 0.1 mm 1 mps 741 mmHg 95%
    03:00 +18°C° 0.1 mm 1 mps 742 mmHg 95%
    04:00 +18°C° 0.1 mm 1 mps 742 mmHg 95%
    05:00 +16°C° 0.1 mm 0 mps 742 mmHg 95%
    06:00 +19°C° 0 mm 1 mps 742 mmHg 91%
    07:00 +20°C° 0 mm 1 mps 743 mmHg 86%
    08:00 +22°C° 0 mm 1 mps 743 mmHg 82%
    09:00 +23°C° 0 mm 1 mps 744 mmHg 76%
    10:00 +24°C° 0 mm 1 mps 744 mmHg 70%
    11:00 +25°C° 0 mm 1 mps 744 mmHg 64%
    12:00 +25°C° 0 mm 1 mps 744 mmHg 62%
    13:00 +26°C° 0 mm 1 mps 744 mmHg 61%
    14:00 +26°C° 0 mm 1 mps 744 mmHg 59%
    15:00 +26°C° 0 mm 1 mps 744 mmHg 61%
    16:00 +26°C° 0 mm 1 mps 744 mmHg 63%
    17:00 +26°C° 0 mm 1 mps 744 mmHg 66%
    18:00 +24°C° 0.5 mm 1 mps 744 mmHg 73%
    19:00 +23°C° 0.5 mm 2 mps 744 mmHg 80%
    20:00 +20°C° 0.5 mm 2 mps 744 mmHg 88%
    21:00 +20°C° 0.7 mm 2 mps 744 mmHg 90%
    22:00 +19°C° 0.7 mm 2 mps 744 mmHg 92%
    23:00 +18°C° 0.7 mm 2 mps 744 mmHg 94%

    8 Junio, Lunes

    Tiempo Temperatura Precipitaciones Viento Presión Humedad
    00:00 +18°C° 0 mm 2 mps 744 mmHg 95%
    01:00 +17°C° 0 mm 2 mps 744 mmHg 95%
    02:00 +17°C° 0 mm 2 mps 744 mmHg 96%
    03:00 +17°C° 0 mm 2 mps 744 mmHg 96%
    04:00 +17°C° 0 mm 2 mps 744 mmHg 96%
    05:00 +17°C° 0 mm 2 mps 744 mmHg 96%
    06:00 +19°C° 0 mm 3 mps 744 mmHg 92%
    07:00 +20°C° 0 mm 3 mps 744 mmHg 88%
    08:00 +21°C° 0 mm 3 mps 744 mmHg 84%
    09:00 +23°C° 0 mm 4 mps 744 mmHg 78%
    10:00 +25°C° 0 mm 4 mps 744 mmHg 73%
    11:00 +26°C° 0 mm 4 mps 744 mmHg 67%
    12:00 +26°C° 0.2 mm 4 mps 744 mmHg 67%
    13:00 +27°C° 0.2 mm 4 mps 744 mmHg 66%
    14:00 +27°C° 0.2 mm 4 mps 744 mmHg 66%
    15:00 +27°C° 0.2 mm 3 mps 744 mmHg 68%
    16:00 +27°C° 0.2 mm 3 mps 743 mmHg 71%
    17:00 +26°C° 0.2 mm 3 mps 743 mmHg 73%
    18:00 +25°C° 0.1 mm 3 mps 743 mmHg 78%
    19:00 +22°C° 0.1 mm 3 mps 743 mmHg 83%
    20:00 +21°C° 0.1 mm 3 mps 743 mmHg 88%
    21:00 +20°C° 0 mm 3 mps 743 mmHg 89%
    22:00 +20°C° 0 mm 3 mps 743 mmHg 91%
    23:00 +19°C° 0 mm 3 mps 743 mmHg 92%

    9 Junio, Martes

    Tiempo Temperatura Precipitaciones Viento Presión Humedad
    00:00 +19°C° 0 mm 3 mps 743 mmHg 92%
    01:00 +19°C° 0 mm 4 mps 743 mmHg 92%
    02:00 +19°C° 0 mm 4 mps 743 mmHg 92%
    03:00 +19°C° 0 mm 4 mps 743 mmHg 92%
    04:00 +19°C° 0 mm 4 mps 743 mmHg 91%
    05:00 +19°C° 0 mm 4 mps 743 mmHg 91%
    06:00 +20°C° 0 mm 5 mps 743 mmHg 87%
    07:00 +22°C° 0 mm 5 mps 743 mmHg 83%
    08:00 +23°C° 0 mm 5 mps 743 mmHg 79%
    09:00 +25°C° 0.2 mm 5 mps 743 mmHg 75%
    10:00 +26°C° 0.2 mm 6 mps 744 mmHg 70%
    11:00 +27°C° 0.2 mm 6 mps 744 mmHg 66%
    12:00 +27°C° 0.8 mm 6 mps 743 mmHg 67%
    13:00 +27°C° 0.8 mm 6 mps 743 mmHg 69%
    14:00 +27°C° 0.8 mm 5 mps 743 mmHg 70%
    15:00 +27°C° 0.2 mm 5 mps 743 mmHg 72%
    16:00 +27°C° 0.2 mm 4 mps 743 mmHg 74%
    17:00 +26°C° 0.2 mm 4 mps 743 mmHg 75%
    18:00 +25°C° 0.1 mm 3 mps 743 mmHg 80%
    19:00 +24°C° 0.1 mm 3 mps 743 mmHg 84%
    20:00 +22°C° 0.1 mm 3 mps 743 mmHg 88%
    21:00 +21°C° 0.1 mm 3 mps 743 mmHg 90%
    22:00 +20°C° 0.1 mm 3 mps 743 mmHg 91%
    23:00 +19°C° 0.1 mm 3 mps 743 mmHg 93%
    Mostrar más